TIANLIAN 2-02

Last updated on Tue Sep 22 2026 00:03:15 GMT+0000 (Coordinated Universal Time)

1 50005U 21124A 26263.85739311 -.00000017 00000+0 00000+0 0 9993 2 50005 1.0414 84.4664 0003620 152.3710 242.5550 1.00273446 17585
UTC large
Height (km)
Speed (km/s)
/
Latitude / Longitude
Inclination (degrees)
Orbital Period (minutes)
Azimuth
Elevation
Range (km)
Doppler Factor

Next 0 passes for location: London (51.5072 / 0.1276)

No passes found over London.
TIANLIAN 2-02